Location: Cedar Brake
(32.2526°N, 97.8459°W)
Time: 16:44:56
(UTC+00:00)

Cosmos 372 Rocket - Pass Details

Date: 22 April 2026
Orbit: 733 x 762 km, 74.1° (Epoch: 9 May)

Event Time Altitude Azimuth Distance (km) Brightness Sun altitude
Rises 10:05:43 0° 344° (NNW) 3,201 7.4 -21.9°
Reaches altitude 10° 10:08:06 10° 345° (NNW) 2,269 6.6 -21.5°
Maximum altitude 10:13:15 83° 74° (ENE) 752 3.9 -20.5°
Drops below altitude 10° 10:18:19 10° 162° (SSE) 2,237 6.3 -19.6°
Sets 10:20:39 0° 163° (SSE) 3,152 7.1 -19.2°
